Location: Hillern
(53.0557°N, 9.8577°E)
Time: 00:11:49
(UTC+00:00)

Meteor 1-10 Rocket - Pass Details

Date: 19 May 2025
Orbit: 833 x 910 km, 81.3° (Epoch: 22 June)

Event Time Altitude Azimuth Distance (km) Brightness Sun altitude
Exits shadow 21:54:27 18° 186° (S) 2,064 5.7 -14.8°
Maximum altitude 21:58:58 82° 101° (E) 914 4.3 -15.0°
Drops below altitude 10° 22:04:49 10° 15° (NNE) 2,563 7.6 -15.3°
Sets 22:07:15 0° 15° (NNE) 3,495 8.5 -15.4°
